Location: Newark
(33.6333°S, 78.8500°W)
Time: 11:00:11
(UTC+00:00)

Tiros 1 - Pass Details

Date: 27 October 2019
Orbit: 630 x 664 km, 48.4° (Epoch: 17 November)

Event Time Altitude Azimuth Distance (km) Brightness Sun altitude
Rises 16:37:55 0° 278° (W) 2,964 10.5 68.6°
Reaches altitude 10° 16:40:32 10° 266° (W) 2,052 9.8 68.8°
Maximum altitude 16:44:37 28° 206° (SSW) 1,211 8.7 68.9°
Drops below altitude 10° 16:48:42 10° 147° (SSE) 2,045 9.7 69.1°
Sets 16:51:18 0° 134° (SE) 2,952 10.4 69.1°
